OK2ARM-6 Weather Reports


time (UTC)temp
C
wind
direction
speed
KPH
gust
KPH
rain 1hr
cm
rain 24hr
cm
rain mn
cm
humidity
%
barometer
mb
20260507033537 10 0.0 0.0 0.00 0.00 0.00 100 1009.4
20260507032536 10 0.0 0.0 0.00 0.00 0.00 100 1009.4
20260507031536 11 0.0 0.0 0.00 0.00 0.00 100 1009.2
20260507030536 11 0.0 0.0 0.00 0.00 0.00 100 1009.2
20260507023049 11 0.0 0.0 0.00 0.00 0.00 100 1008.9
20260507022049 11 0.0 0.0 0.00 0.00 0.00 100 1008.9
20260507021050 11 0.0 0.0 0.00 0.00 0.00 100 1009.0
20260507020049 11 0.0 0.0 0.00 0.00 0.00 100 1008.8
20260507013825 12 0.0 0.0 0.00 0.00 0.00 100 1008.4
20260507012825 12 0.0 0.0 0.00 0.00 0.00 100 1008.2
20260507011825 12 0.0 0.0 0.00 0.00 0.00 100 1008.2
20260507010825 12 0.0 0.0 0.00 0.00 0.00 100 1008.2
20260507005825 12 0.0 0.0 0.00 0.00 0.00 100 1008.1
20260507004825 12 0.0 0.0 0.00 0.00 0.00 100 1008.1
20260507003825 12 0.0 0.0 0.00 0.00 0.00 100 1007.9
20260507002825 12 0.0 0.0 0.00 0.00 0.00 100 1007.6
20260507001825 12 0.0 0.0 0.00 0.00 0.00 100 1007.8
20260507000825 13 0.0 0.0 0.00 0.00 0.00 100 1007.8
20260506235825 13 0.0 0.0 0.00 0.00 0.00 100 1007.8
20260506232338 13 0.0 0.0 0.00 0.00 0.00 100 1007.4
20260506231338 13 0.0 0.0 0.00 0.00 0.00 100 1007.1
20260506230338 13 0.0 0.0 0.00 0.00 0.00 100 1006.7
20260506225338 13 0.0 0.0 0.00 0.00 0.00 100 1006.7
20260506224338 13 0.0 0.0 0.00 0.00 0.00 100 1006.4
20260506220849 15 0.0 0.0 0.00 0.00 0.00 100 1005.9
20260506215849 15 0.0 0.0 0.00 0.00 0.00 35 1005.8
20260506213624 16 0.0 0.0 0.00 0.00 0.00 100 1005.6
20260506212624 16 0.0 0.0 0.00 0.00 0.00 100 1005.4
20260506211624 16 0.0 0.0 0.00 0.00 0.00 100 1005.2
20260506210624 16 0.0 0.0 0.00 0.00 0.00 100 1005.1
20260506205624 17 0.0 0.0 0.00 0.00 0.00 100 1004.7
20260506204625 17 0.0 0.0 0.00 0.00 0.00 100 1004.7
20260506203624 17 0.0 0.0 0.00 0.00 0.00 100 1004.7
20260506202624 17 0.0 0.0 0.00 0.00 0.00 100 1004.6
20260506201625 17 0.0 0.0 0.00 0.00 0.00 100 1004.7
20260506200624 17 0.0 0.0 0.00 0.00 0.00 100 1004.8
20260506195624 18 0.0 0.0 0.00 0.00 0.00 100 1004.7
20260506194624 18 0.0 0.0 0.00 0.00 0.00 100 1004.7
20260506193624 18 0.0 0.0 0.00 0.00 0.00 100 1004.6
20260506192625 18 0.0 0.0 0.00 0.00 0.00 100 1004.5
20260506191624 18 0.0 0.0 0.00 0.00 0.00 100 1004.3
20260506190624 18 0.0 0.0 0.00 0.00 0.00 100 1004.2
20260506185624 18 0.0 0.0 0.00 0.00 0.00 100 1004.3
20260506184624 19 0.0 0.0 0.00 0.00 0.00 100 1004.1
20260506183624 19 0.0 0.0 0.00 0.00 0.00 100 1003.9
20260506182624 19 0.0 0.0 0.00 0.00 0.00 100 1004.0
20260506181624 20 0.0 0.0 0.00 0.00 0.00 100 1004.1
20260506175400 20 0.0 0.0 0.00 0.00 0.00 100 1004.0
20260506174401 20 0.0 0.0 0.00 0.00 0.00 100 1003.9
20260506173400 21 0.0 0.0 0.00 0.00 0.00 100 1004.0
20260506172400 21 0.0 0.0 0.00 0.00 0.00 100 1004.1
20260506171400 22 0.0 0.0 0.00 0.00 0.00 100 1004.1
20260506163911 23 0.0 0.0 0.00 0.00 0.00 100 1004.5
20260506162911 23 0.0 0.0 0.00 0.00 0.00 100 1004.4
20260506161911 23 0.0 0.0 0.00 0.00 0.00 100 1004.4
20260506155648 24 0.0 0.0 0.00 0.00 0.00 100 1004.6
20260506154647 24 0.0 0.0 0.00 0.00 0.00 100 1004.8
20260506153647 24 0.0 0.0 0.00 0.00 0.00 100 1004.9
20260506152648 24 0.0 0.0 0.00 0.00 0.00 100 1005.2
20260506151648 25 0.0 0.0 0.00 0.00 0.00 100 1005.3
20260506150647 24 0.0 0.0 0.00 0.00 0.00 100 1005.3
20260506145647 23 0.0 0.0 0.00 0.00 0.00 100 1005.4
20260506144648 24 0.0 0.0 0.00 0.00 0.00 100 1005.6
20260506143647 22 0.0 0.0 0.00 0.00 0.00 100 1005.8
20260506141423 21 0.0 0.0 0.00 0.00 0.00 100 1006.1
20260506140423 21 0.0 0.0 0.00 0.00 0.00 100 1006.0
20260506135423 22 0.0 0.0 0.00 0.00 0.00 100 1006.1
20260506134423 22 0.0 0.0 0.00 0.00 0.00 100 1006.3
20260506133423 24 0.0 0.0 0.00 0.00 0.00 100 1006.3
20260506132423 21 0.0 0.0 0.00 0.00 0.00 100 1006.6
20260506131423 22 0.0 0.0 0.00 0.00 0.00 100 1006.5
20260506130423 24 0.0 0.0 0.00 0.00 0.00 100 1006.8
20260506125423 23 0.0 0.0 0.00 0.00 0.00 100 1006.8
20260506124423 23 0.0 0.0 0.00 0.00 0.00 100 1007.0
20260506123423 24 0.0 0.0 0.00 0.00 0.00 100 1007.1
20260506122423 24 0.0 0.0 0.00 0.00 0.00 100 1007.2
20260506121424 24 0.0 0.0 0.00 0.00 0.00 100 1007.3
20260506120423 22 0.0 0.0 0.00 0.00 0.00 100 1007.4
20260506115423 23 0.0 0.0 0.00 0.00 0.00 100 1007.4
20260506114423 23 0.0 0.0 0.00 0.00 0.00 100 1007.4
20260506112159 22 0.0 0.0 0.00 0.00 0.00 100 1007.4
20260506111159 22 0.0 0.0 0.00 0.00 0.00 100 1007.5
20260506110159 21 0.0 0.0 0.00 0.00 0.00 100 1007.7
20260506105159 21 0.0 0.0 0.00 0.00 0.00 100 1007.8
20260506104159 21 0.0 0.0 0.00 0.00 0.00 100 1007.8
20260506100712 22 0.0 0.0 0.00 0.00 0.00 100 1008.1
20260506095712 22 0.0 0.0 0.00 0.00 0.00 100 1008.3
20260506094712 20 0.0 0.0 0.00 0.00 0.00 100 1008.4
20260506092448 20 0.0 0.0 0.00 0.00 0.00 100 1008.3
20260506091449 19 0.0 0.0 0.00 0.00 0.00 100 1008.3
20260506090448 19 0.0 0.0 0.00 0.00 0.00 100 1008.4
20260506085448 18 0.0 0.0 0.00 0.00 0.00 100 1008.3
20260506084448 18 0.0 0.0 0.00 0.00 0.00 100 1008.3
20260506083448 18 0.0 0.0 0.00 0.00 0.00 100 1008.4
20260506082448 18 0.0 0.0 0.00 0.00 0.00 100 1008.5
20260506081448 18 0.0 0.0 0.00 0.00 0.00 8 1008.6
20260506072959 16 0.0 0.0 0.00 0.00 0.00 5 1008.5
20260506071959 16 0.0 0.0 0.00 0.00 0.00 23 1008.7
20260506070959 16 0.0 0.0 0.00 0.00 0.00 22 1008.7
20260506061735 15 0.0 0.0 0.00 0.00 0.00 47 1008.5
20260506060735 14 0.0 0.0 0.00 0.00 0.00 64 1008.5
20260506045024 10 0.0 0.0 0.00 0.00 0.00 100 1007.9
20260506044025 10 0.0 0.0 0.00 0.00 0.00 100 1007.9
20260506043025 10 0.0 0.0 0.00 0.00 0.00 100 1007.9
20260506040800 9 0.0 0.0 0.00 0.00 0.00 100 1007.6
20260506035800 9 0.0 0.0 0.00 0.00 0.00 100 1007.5
20260506034800 9 0.0 0.0 0.00 0.00 0.00 100 1007.4